User: anonymous   Login
Location: Cadenet
(43.7345°N, 5.3750°E)
Time: 17:27:01
(UTC+00:00)
Language:

STARLINK-1144 - Orbit

View from above orbital plane
View from above orbital plane
View from above satellite
View from above satellite

Ground track
Ground track

The orbit data is extracted from the following two-line orbital elements,

1 44933U 20001V   20152.58334491 -.00004838  00000-0 -31320-3 0  9990
2 44933  53.0013  90.2761 0001388  87.2264  18.6741 15.05569308 23410
Epoch (UTC): 31 May 2020 14:00:01
Eccentricity: 0.0001388
inclination: 53.0013°
perigee height: 549 km
apogee height: 551 km
right ascension of ascending node: 90.2761°
argument of perigee: 87.2264°
revolutions per day: 15.05569308
mean anomaly at epoch: 18.6741°
orbit number at epoch: 2341

The dashed part of the orbit path shows where the satellite is in the earth's shadow,  

DLR